[[{"header":{"parameterUnit":"m.s-1","parameterCategory":1,"la1":30.2991,"la2":30.254,"lo1":-89.0895,"lo2":-89.0444,"dy":0.0017,"dx":0.0017,"nx":28,"ny":28,"refTime":"2023-08-16T03:00:00:Z","depth":0,"parameterNumber":2,"parameterNumberName":"U-component_of_WINDS"},"data":[0,0,0,0,0,0,0,0,0,0,0,0,0,0,0,0,0,0,0,0,0,0,0,0,0,0,0,0,0,0,0,0,0,0,0,0,0,0,0,0,0,0,0,0,0,0,0,0,0,0,0,0,0,0,0,0,0,0,-2.7926,-2.7927,0,-2.8016,-2.8017,-2.8018,-2.7918,-2.7914,-2.791,-2.7907,-2.8,-2.8006,-2.8012,0,0,0,0,0,0,0,0,0,0,0,0,0,-2.7668,-2.7673,-2.7926,-2.7927,-2.7928,-2.8016,-2.8017,-2.8018,-2.7919,-2.7914,-2.7909,-2.7905,-2.7998,-2.8005,-2.8012,0,0,0,0,0,0,0,0,0,0,0,0,0,-2.7771,-2.7675,-2.7926,-2.7889,-2.7887,-2.8015,-2.8017,-2.8018,-2.792,-2.7914,-2.7908,-2.7903,-2.7995,-2.8004,-2.8013,-2.8183,0,0,-2.8041,-2.8045,0,0,0,0,0,0,0,0,-2.7765,-2.7781,-2.7893,-2.7892,-2.7889,-2.795,-2.796,-2.8074,-2.7921,-2.7907,-2.7907,-2.79,-2.7988,-2.7997,-2.8026,-2.8187,-2.8191,-2.8041,-2.8047,-2.8051,-2.8053,0,0,0,0,0,0,0,-2.7758,-2.7776,-2.7961,-2.7895,-2.7893,-2.7868,-2.7876,-2.7981,-2.7978,-2.7908,-2.7901,-2.7913,-2.7986,-2.8018,-2.8028,-2.8192,-2.8041,-2.8049,-2.8055,-2.8058,-2.8496,-2.8502,0,0,0,0,0,0,-2.7755,-2.7771,-2.7959,-2.7964,-2.7812,-2.7877,-2.7887,-2.7936,-2.7977,-2.7978,-2.7918,-2.7908,-2.8005,-2.8018,-2.8031,-2.8233,-2.8051,-2.8059,-2.8064,-2.849,-2.8498,-2.8505,0,0,0,0,0,0,-2.775,-2.7773,-2.7955,-2.7866,-2.7887,-2.7888,-2.7944,-2.7941,-2.7973,-2.7984,-2.7983,-2.7951,-2.8001,-2.8018,-2.8146,-2.8235,-2.8063,-2.8071,-2.8483,-2.8493,-2.8501,-2.8639,0,0,0,0,0,0,-2.7743,-2.7772,-2.7837,-2.7868,-2.7892,-2.8069,-2.795,-2.7947,-2.7989,-2.7977,-2.8016,-2.8017,-2.7998,-2.8133,-2.8155,-2.8244,-2.8079,-2.8475,-2.8487,-2.8498,-2.8626,-2.8652,-2.8673,0,0,0,0,0,-2.7734,-2.7872,-2.784,-2.7864,-2.7973,-2.8074,-2.8088,-2.8064,-2.7997,-2.8062,-2.8068,-2.8015,-2.8221,-2.8147,-2.817,-2.8264,-2.8469,-2.8484,-2.8497,-2.8616,-2.8647,-2.8673,0,0,0,0,0,0,-2.7852,-2.7875,-2.7841,-2.7993,-2.8032,-2.8057,-2.8139,-2.8098,-2.8158,-2.8144,-2.8111,-2.8121,-2.8257,-2.8272,-2.8189,-2.843,-2.8334,-2.8353,-2.8416,-2.8445,-2.8468,-2.8463,-2.8086,0,0,0,0,0,-2.7895,-2.7975,-2.7991,-2.8124,-2.8145,-2.8139,-2.8182,-2.816,-2.82,-2.8216,-2.8232,-2.8273,-2.8347,-2.8396,-2.8464,-2.8626,-2.8634,-2.8703,-2.8726,-2.8745,-2.8764,-2.8851,-2.8882,-2.8551,-2.855,-2.855,0,0,-2.7986,-2.8009,-2.8062,-2.8148,-2.8176,-2.826,-2.8154,-2.8247,-2.831,-2.823,-2.8353,-2.8365,-2.8408,-2.8555,-2.8619,-2.8572,-2.8856,-2.8763,-2.8778,-2.8786,-2.8869,-2.8901,-2.8928,-2.856,-2.8558,-2.8557,0,0,-2.8196,-2.822,-2.8334,-2.8364,-2.8407,-2.8402,-2.8429,-2.846,-2.8466,-2.8587,-2.853,-2.8602,-2.873,-2.8763,-2.8797,-2.9017,-2.8971,-2.904,-2.9164,-2.925,-2.9276,-2.9299,-2.938,-2.9409,-2.9057,-2.9057,-2.9058,0,-2.8304,-2.8429,-2.8397,-2.8496,-2.8535,-2.8466,-2.8581,-2.8611,-2.8675,-2.8704,-2.8649,-2.8807,-2.8831,-2.8985,-2.9038,-2.9067,-2.9098,-2.9037,-2.9275,-2.9297,-2.9319,-2.9395,-2.9425,-2.9066,-2.9065,-2.9064,-2.9063,0,-2.856,-2.8647,-2.8733,-2.8797,-2.8846,-2.8952,-2.8937,-2.899,-2.8962,-2.8963,-2.9087,-2.9113,-2.9186,-2.9219,-2.9194,-2.9369,-2.9338,-2.9279,-2.9183,-2.9359,-2.9431,-2.9459,-2.9078,-2.9075,-2.9072,-2.907,0,0,-2.885,-2.8893,-2.8926,-2.8954,-2.8995,-2.9062,-2.9164,-2.9235,-2.9282,-2.9327,-2.9413,-2.9521,-2.9466,-2.9505,-2.9481,-2.9557,-2.9731,-2.9488,-2.9489,-2.9535,-2.9928,-2.9974,-3.0009,-2.9699,-2.9704,-2.9709,-2.9925,0,-2.9062,-2.924,-2.9214,-2.9386,-2.9466,-2.94,-2.9489,-2.9524,-2.9526,-2.9594,-2.9596,-2.9674,-2.9595,-2.9618,-2.9689,-2.9695,-2.981,-2.9678,-2.978,-2.9784,-2.9775,-3.0046,-3.0095,-3.0299,-2.9952,-2.9957,-2.996,0,-2.9335,-2.939,-2.957,-2.9599,-2.9631,-2.9712,-2.9774,-2.984,-2.9878,-2.9874,-2.9916,-2.9879,-2.9981,-2.9879,-3.002,-2.9931,-2.997,-2.9979,-2.9986,-2.9998,-2.9886,-3.0067,-3.0362,-3.0394,-3.0004,-3.0,-2.9997,0,-2.9531,-2.965,-2.9773,-2.9799,-2.9835,-2.9893,-2.9911,-2.9943,-2.9987,-3.0041,-3.0069,-3.0134,-3.0171,-3.0222,-3.0203,-3.013,-3.0348,-3.0245,-3.0349,-3.035,-3.0401,-3.0399,-3.071,-3.0421,-3.0421,-3.042,-3.042,0,-2.9773,-2.9887,-2.9862,-2.9939,-3.0063,-3.0031,-3.0155,-3.0164,-3.0193,-3.027,-3.0215,-3.0288,-3.0257,-3.0328,-3.0314,-3.0433,-3.0449,-3.045,-3.0446,-3.0457,-3.0458,-3.0485,-3.0472,-3.0428,-3.0426,-3.0425,-3.0423,0,-3.0016,-3.0004,-3.0134,-3.0157,-3.0165,-3.0256,-3.0276,-3.0347,-3.0343,-3.0441,-3.0462,-3.0457,-3.0538,-3.0523,-3.0612,-3.0602,-3.0752,-3.0729,-3.074,-3.0736,-3.0842,-3.0833,-3.1185,-3.123,-3.0909,-3.0912,-3.0915,0,-3.0173,-3.0259,-3.029,-3.0338,-3.036,-3.0437,-3.0481,-3.0451,-3.05,-3.0549,-3.0614,-3.0689,-3.0749,-3.0881,-3.0885,-3.0953,-3.0932,-3.105,-3.0942,-3.0951,-3.0937,-3.0934,-3.0943,-3.1073,-3.1077,-3.108,-3.1082,0,-3.0454,-3.0443,-3.0509,-3.0574,-3.0628,-3.0677,-3.072,-3.0762,-3.0736,-3.0793,-3.0875,-3.092,-3.101,-3.1087,-3.1149,-3.1167,-3.1122,-3.1115,-3.1144,-3.1158,-3.1163,-3.1164,-3.0802,-3.1109,-3.1106,-3.1104,-3.1103,-3.1102,-3.066,-3.0734,-3.0767,-3.0843,-3.0872,-3.0914,-3.0982,-3.0986,-3.1054,-3.1125,-3.1103,-3.1196,-3.123,-3.131,-3.1334,-3.1407,-3.1363,-3.1403,-3.1414,-3.1425,-3.1439,-3.1148,-3.1418,-3.1417,-3.1416,-3.1415,-3.1415,0,-3.0941,-3.0958,-3.1028,-3.109,-3.115,-3.1099,-3.1144,-3.1197,-3.128,-3.1316,-3.1375,-3.1468,-3.1541,-3.155,-3.1619,-3.1675,-3.1656,-3.1695,-3.1692,-3.1697,-3.1473,-3.1444,-3.1709,-3.1709,-3.1709,-3.1709,-3.1709,-3.1709,-3.1094,-3.1215,-3.1208,-3.1344,-3.136,-3.1451,-3.1481,-3.152,-3.1548,-3.1655,-3.1715,-3.172,-3.1745,-3.1815,-3.188,-3.188,-3.191,-3.1957,-3.195,-3.1742,-3.1713,-3.1685,-3.1657,-3.1963,-3.1963,-3.2168,-3.217,-3.2172]},{"header":{"parameterUnit":"m.s-1","parameterCategory":1,"la1":30.2991,"la2":30.254,"lo1":-89.0895,"lo2":-89.0444,"dy":0.0017,"dx":0.0017,"nx":28,"ny":28,"refTime":"2023-08-16T03:00:00:Z","depth":0,"parameterNumber":3,"parameterNumberName":"V-component_of_WINDS"},"data":[0,0,0,0,0,0,0,0,0,0,0,0,0,0,0,0,0,0,0,0,0,0,0,0,0,0,0,0,0,0,0,0,0,0,0,0,0,0,0,0,0,0,0,0,0,0,0,0,0,0,0,0,0,0,0,0,0,0,-5.4816,-5.4817,0,-5.4881,-5.4882,-5.4882,-5.4809,-5.4806,-5.4804,-5.4801,-5.4862,-5.4866,-5.487,0,0,0,0,0,0,0,0,0,0,0,0,0,-5.4622,-5.4626,-5.4816,-5.4817,-5.4818,-5.4881,-5.4882,-5.4882,-5.481,-5.4806,-5.4803,-5.48,-5.4861,-5.4865,-5.487,0,0,0,0,0,0,0,0,0,0,0,0,0,-5.4699,-5.4628,-5.4816,-5.4789,-5.4787,-5.4881,-5.4882,-5.4883,-5.481,-5.4806,-5.4802,-5.4798,-5.4859,-5.4865,-5.4871,-5.4992,0,0,-5.489,-5.4893,0,0,0,0,0,0,0,0,-5.4694,-5.4706,-5.4792,-5.4791,-5.4789,-5.4833,-5.4836,-5.4919,-5.4811,-5.4801,-5.4801,-5.4796,-5.4855,-5.4861,-5.4882,-5.4995,-5.4998,-5.4891,-5.4895,-5.4897,-5.4899,0,0,0,0,0,0,0,-5.4689,-5.4703,-5.4841,-5.4793,-5.4792,-5.4771,-5.4778,-5.4851,-5.485,-5.4802,-5.4797,-5.4806,-5.4854,-5.4877,-5.4883,-5.4999,-5.4891,-5.4896,-5.49,-5.4903,-5.5211,-5.5215,0,0,0,0,0,0,-5.4688,-5.4699,-5.4839,-5.4843,-5.4731,-5.4778,-5.4785,-5.4823,-5.4849,-5.485,-5.4809,-5.4802,-5.4868,-5.4876,-5.4885,-5.5027,-5.4897,-5.4903,-5.4907,-5.5207,-5.5212,-5.5217,0,0,0,0,0,0,-5.4684,-5.4701,-5.4837,-5.477,-5.4785,-5.4786,-5.4829,-5.4826,-5.4849,-5.4855,-5.4854,-5.4834,-5.4865,-5.4876,-5.4966,-5.5028,-5.4906,-5.4912,-5.5202,-5.5208,-5.5215,-5.5313,0,0,0,0,0,0,-5.4679,-5.47,-5.4748,-5.4771,-5.4789,-5.4919,-5.4833,-5.4831,-5.4861,-5.4852,-5.4877,-5.4878,-5.4863,-5.4957,-5.4972,-5.5035,-5.4917,-5.5196,-5.5205,-5.5212,-5.5305,-5.5323,-5.5338,0,0,0,0,0,-5.4672,-5.4773,-5.4751,-5.4768,-5.485,-5.4923,-5.4933,-5.4915,-5.4867,-5.4913,-5.4916,-5.4877,-5.5019,-5.4967,-5.4983,-5.5049,-5.5192,-5.5202,-5.5212,-5.5297,-5.5319,-5.5338,0,0,0,0,0,0,-5.4755,-5.4775,-5.4751,-5.4863,-5.4892,-5.491,-5.4969,-5.4939,-5.4981,-5.4971,-5.4946,-5.4952,-5.5047,-5.5057,-5.4998,-5.5166,-5.5097,-5.5111,-5.5156,-5.5177,-5.5194,-5.5189,-5.4922,0,0,0,0,0,-5.4786,-5.4846,-5.486,-5.4957,-5.4973,-5.4969,-5.5,-5.4984,-5.5012,-5.5023,-5.5033,-5.506,-5.5111,-5.5145,-5.5192,-5.5306,-5.5309,-5.5359,-5.5375,-5.5389,-5.5401,-5.546,-5.5481,-5.525,-5.525,-5.5249,0,0,-5.4851,-5.487,-5.4909,-5.4974,-5.4994,-5.5054,-5.4979,-5.5046,-5.509,-5.5033,-5.5118,-5.5126,-5.5155,-5.5257,-5.5302,-5.5268,-5.5466,-5.5402,-5.5413,-5.5417,-5.5472,-5.5494,-5.5514,-5.5257,-5.5255,-5.5254,0,0,-5.5,-5.5022,-5.5104,-5.5126,-5.5159,-5.5155,-5.5175,-5.5198,-5.5201,-5.5287,-5.5245,-5.5295,-5.5384,-5.5405,-5.5428,-5.5584,-5.5548,-5.56,-5.5687,-5.5745,-5.5763,-5.5779,-5.5833,-5.5853,-5.5612,-5.5612,-5.5612,0,-5.5076,-5.5168,-5.5149,-5.522,-5.5248,-5.5201,-5.5282,-5.5304,-5.535,-5.5369,-5.5331,-5.544,-5.5456,-5.5561,-5.5599,-5.5619,-5.5639,-5.5596,-5.5762,-5.5778,-5.5793,-5.5844,-5.5865,-5.5618,-5.5617,-5.5617,-5.5616,0,-5.5259,-5.5323,-5.5385,-5.5432,-5.5467,-5.5543,-5.5533,-5.5571,-5.5552,-5.5552,-5.5638,-5.5655,-5.5704,-5.5728,-5.571,-5.5831,-5.5808,-5.5767,-5.5697,-5.5821,-5.5869,-5.5888,-5.5627,-5.5624,-5.5623,-5.5621,0,0,-5.5462,-5.5497,-5.552,-5.554,-5.5572,-5.562,-5.5692,-5.5742,-5.5774,-5.5806,-5.5865,-5.594,-5.5902,-5.5927,-5.591,-5.5961,-5.6082,-5.5913,-5.5913,-5.5942,-5.6214,-5.6244,-5.6268,-5.6058,-5.6062,-5.6065,-5.6211,0,-5.5611,-5.5738,-5.5723,-5.5844,-5.5901,-5.5856,-5.5918,-5.5943,-5.5945,-5.5992,-5.5992,-5.6046,-5.5992,-5.6006,-5.6055,-5.6057,-5.6136,-5.6046,-5.611,-5.6113,-5.6104,-5.6293,-5.6325,-5.6462,-5.623,-5.6233,-5.6235,0,-5.5801,-5.5842,-5.597,-5.5991,-5.6015,-5.6072,-5.6115,-5.6161,-5.6187,-5.6185,-5.6213,-5.6187,-5.6256,-5.6186,-5.6281,-5.622,-5.6245,-5.625,-5.6255,-5.6259,-5.6181,-5.6301,-5.6506,-5.6526,-5.6264,-5.6262,-5.626,0,-5.5935,-5.6022,-5.6109,-5.6127,-5.6155,-5.6196,-5.6209,-5.6232,-5.6262,-5.6299,-5.6318,-5.6362,-5.6386,-5.642,-5.6405,-5.6355,-5.6502,-5.643,-5.6499,-5.65,-5.6531,-5.6529,-5.6742,-5.655,-5.655,-5.6549,-5.6549,0,-5.6102,-5.6181,-5.6169,-5.6222,-5.6309,-5.6289,-5.6374,-5.6382,-5.6402,-5.6454,-5.6417,-5.6466,-5.6445,-5.6492,-5.6481,-5.6559,-5.6571,-5.6569,-5.6565,-5.6572,-5.6572,-5.6587,-5.6577,-5.6555,-5.6554,-5.6553,-5.6552,0,-5.6266,-5.6261,-5.6353,-5.6372,-5.6378,-5.6441,-5.6456,-5.6505,-5.6503,-5.6569,-5.6584,-5.6581,-5.6634,-5.6623,-5.6681,-5.6673,-5.6772,-5.6757,-5.6764,-5.676,-5.6829,-5.6822,-5.7058,-5.7087,-5.6877,-5.6879,-5.6881,0,-5.6372,-5.6432,-5.6458,-5.6491,-5.6508,-5.6561,-5.6592,-5.6574,-5.6607,-5.6642,-5.6686,-5.6736,-5.6776,-5.6863,-5.6864,-5.6908,-5.6892,-5.6972,-5.6899,-5.6903,-5.6892,-5.6888,-5.6893,-5.6986,-5.6989,-5.6991,-5.6992,0,-5.6561,-5.6556,-5.6602,-5.6649,-5.6687,-5.6722,-5.6753,-5.6781,-5.6766,-5.6804,-5.6859,-5.689,-5.695,-5.7,-5.704,-5.7051,-5.7019,-5.7015,-5.7033,-5.704,-5.7042,-5.704,-5.6802,-5.701,-5.7008,-5.7007,-5.7006,-5.7005,-5.6698,-5.6749,-5.6775,-5.6828,-5.6849,-5.6879,-5.6925,-5.693,-5.6976,-5.7024,-5.701,-5.7072,-5.7095,-5.7147,-5.7162,-5.7209,-5.7179,-5.7205,-5.7212,-5.7218,-5.7226,-5.7035,-5.7216,-5.7216,-5.7215,-5.7215,-5.7214,0,-5.6884,-5.6898,-5.6947,-5.6992,-5.7033,-5.7001,-5.7033,-5.7069,-5.7125,-5.715,-5.7189,-5.7251,-5.7299,-5.7305,-5.7349,-5.7385,-5.7371,-5.7397,-5.7394,-5.7396,-5.7251,-5.7231,-5.7408,-5.7408,-5.7408,-5.7408,-5.7408,-5.7408,-5.6985,-5.7069,-5.7066,-5.7159,-5.7172,-5.7234,-5.7254,-5.7281,-5.73,-5.7372,-5.7412,-5.7416,-5.7432,-5.7477,-5.7519,-5.7519,-5.7536,-5.7568,-5.7562,-5.7426,-5.7407,-5.7388,-5.7369,-5.7572,-5.7572,-5.7703,-5.7704,-5.7705]}]]